Tracking 29892 objects as of 21-Nov-2024
HD Live streaming from Space Station
objects crossing your sky now

ONEWEB-0081

Track ONEWEB-0081 now!
10-day predictions
ONEWEB-0081 is classified as:


NORAD ID: 45429
Int'l Code: 2020-020F
Perigee: 1,223.5 km
Apogee: 1,226.1 km
Inclination: 87.9 °
Period: 109.8 minutes
Semi major axis: 7595 km
RCS: Unknown
Launch date: March 21, 2020
Source: United Kingdom (UK)
Launch site: TYURATAM MISSILE AND SPACE COMPLEX (TTMTR)
Your satellite tracking list
Your tracking list is empty




NASA's NSSDC Master Catalog

Two Line Element Set (TLE):
1 45429U 20020F   24324.48280994  .00000386  00000-0  10521-2 0  9995
2 45429  87.8880 135.5702 0001717  88.4981 271.6344 13.11415158227415
Source of the keplerian elements: AFSPC